CW1492 Weather Reports


Display with metric or nautical units.
time (UTC)temp
F
wind
direction
speed
MPH
gust
MPH
rain 1hr
in
rain 24hr
in
rain mn
in
humidity
%
barometer
mb
20260503200436 51 232 8.0 16.0 0.00 0.00 0.00 28 1008.8
20260503200340 50 344 4.0 14.0 0.00 0.00 0.00 46 1007.2
20260503194850 50 302 2.0 9.0 0.00 0.00 0.00 46 1007.3
20260503194832 49 345 8.0 16.0 0.00 0.00 0.00 31 1009.0
20260503193357 50 25 3.0 10.0 0.00 0.00 0.00 46 1007.2
20260503193345 49 318 7.0 18.0 0.00 0.00 0.00 30 1009.0
20260503191845 49 258 12.0 22.0 0.00 0.00 0.00 29 1008.8
20260503191841 49 286 3.0 13.0 0.00 0.00 0.00 46 1007.2
20260503190347 49 305 5.0 10.0 0.00 0.00 0.00 46 1007.3
20260503190331 49 248 5.0 16.0 0.00 0.00 0.00 32 1008.9
20260503184846 49 325 10.0 21.0 0.00 0.00 0.00 30 1008.9
20260503184835 49 315 5.0 12.0 0.00 0.00 0.00 45 1007.2
20260503183443 50 321 7.0 20.0 0.00 0.00 0.00 30 1008.9
20260503183401 50 321 7.0 20.0 0.00 0.00 0.00 30 1008.9
20260503183316 50 330 4.0 16.0 0.00 0.00 0.00 46 1007.3
20260503181908 50 353 9.0 22.0 0.00 0.00 0.00 29 1008.9
20260503181820 50 329 5.0 15.0 0.00 0.00 0.00 45 1007.4
20260503180343 50 344 8.0 21.0 0.00 0.00 0.00 29 1008.9
20260503180324 50 311 6.0 12.0 0.00 0.00 0.00 45 1007.4
20260503174826 48 291 10.0 20.0 0.00 0.00 0.00 32 1008.9
20260503174824 49 360 3.0 15.0 0.00 0.00 0.00 47 1007.3
20260503173358 49 271 4.0 11.0 0.00 0.00 0.00 48 1007.1
20260503173333 49 357 13.0 24.0 0.00 0.00 0.00 32 1008.8
20260503171917 49 330 10.0 21.0 0.00 0.00 0.00 31 1008.8
20260503171815 49 306 4.0 11.0 0.00 0.00 0.00 49 1007.1
20260503170434 49 295 10.0 17.0 0.00 0.00 0.00 34 1008.7
20260503170323 49 21 4.0 11.0 0.00 0.00 0.00 50 1007.0
20260503150400 49 327 4.0 14.0 0.00 0.02 0.00 48 1007.2
20260503130359 43 317 2.0 5.0 0.00 0.02 0.00 75 1007.9
20260503130333 44 94 4.0 12.0 0.00 0.03 0.00 52 1009.7
20260503110350 39 302 0.0 1.0 0.00 0.06 0.00 87 1008.0
20260503110332 40 295 1.0 4.0 0.00 0.05 0.00 62 1009.6
20260503090416 36 326 0.0 0.0 0.00 0.14 0.00 91 1008.1
20260503090358 39 345 1.0 3.0 0.00 0.06 0.00 61 1009.5
20260503080414 38 25 1.0 2.0 0.00 0.15 0.00 58 1010.2
20260503080322 36 326 1.0 1.0 0.00 0.22 0.00 89 1008.8
20260503071854 39 25 1.0 2.0 0.00 0.18 0.00 54 1010.4
20260503071828 37 326 1.0 2.0 0.00 0.27 0.00 88 1008.9
20260503070332 39 25 0.0 2.0 0.00 0.18 0.00 55 1010.6
20260503070330 37 326 0.0 1.0 0.00 0.27 0.00 85 1009.2
20260503060312 39 326 0.0 0.0 0.00 0.29 0.00 84 1009.6
20260503054901 39 326 0.0 1.0 0.00 0.29 0.00 83 1009.7
20260503054836 40 359 1.0 2.0 0.00 0.26 0.00 50 1011.2
20260503053341 41 345 1.0 2.0 0.00 0.26 0.00 48 1011.3
20260503051911 41 345 0.0 4.0 0.00 0.26 0.00 45 1011.6
20260503051838 39 326 0.0 1.0 0.00 0.30 0.00 85 1010.0
20260503050414 41 346 2.0 7.0 0.00 0.26 0.00 45 1011.7
20260503050318 38 318 0.0 1.0 0.00 0.30 0.00 88 1010.1
20260503044835 41 47 0.0 0.0 0.00 0.26 0.00 45 1012.0
20260503044817 38 318 0.0 2.0 0.00 0.30 0.00 87 1010.4
20260503043344 41 42 2.0 3.0 0.00 0.26 0.00 45 1012.1
20260503043340 38 318 1.0 2.0 0.00 0.30 0.00 86 1010.5
20260503041850 38 318 1.0 2.0 0.00 0.30 0.30 85 1010.7
20260503041846 41 43 1.0 3.0 0.00 0.26 0.00 47 1012.2
20260503040353 41 355 1.0 4.0 0.00 0.26 0.00 44 1012.4
20260503040314 38 318 0.0 2.0 0.00 0.30 0.30 84 1010.9
20260503034912 42 357 0.0 1.0 0.00 0.26 0.26 44 1012.5
20260503034814 39 318 1.0 1.0 0.00 0.30 0.30 82 1010.9
20260503033405 43 12 1.0 3.0 0.00 0.26 0.26 42 1012.4
20260503033336 39 318 0.0 1.0 0.00 0.30 0.30 82 1010.9
20260503031852 43 53 2.0 6.0 0.00 0.26 0.26 41 1012.5
20260503031816 40 318 1.0 2.0 0.00 0.30 0.30 78 1011.0
20260503030422 43 14 3.0 4.0 0.00 0.26 0.26 42 1012.5
20260503030316 41 319 1.0 2.0 0.00 0.30 0.30 76 1011.0
20260503024838 44 322 1.0 4.0 0.00 0.26 0.26 42 1012.6
20260503024817 43 319 0.0 2.0 0.00 0.30 0.30 73 1011.0
20260503023404 44 310 0.0 1.0 0.00 0.30 0.30 72 1011.0
20260503023350 44 322 1.0 3.0 0.00 0.26 0.26 42 1012.5
20260503021934 45 334 0.0 2.0 0.00 0.26 0.26 41 1012.6
20260503021830 44 323 2.0 3.0 0.00 0.30 0.30 64 1011.0
20260503020339 45 308 1.0 4.0 0.00 0.26 0.26 39 1012.7
20260503020316 43 333 1.0 3.0 0.00 0.30 0.30 69 1011.1
20260503014902 46 320 1.0 8.0 0.00 0.26 0.26 38 1012.8
20260503014841 42 321 1.0 2.0 0.00 0.30 0.30 81 1011.3
20260503013353 46 325 0.0 3.0 0.00 0.26 0.26 38 1012.7
20260503013326 42 321 1.0 2.0 0.00 0.30 0.30 78 1011.1
20260503011902 46 301 1.0 7.0 0.00 0.26 0.26 38 1012.7
20260503011843 43 323 0.0 1.0 0.00 0.30 0.30 80 1011.1
20260503010402 47 245 2.0 7.0 0.00 0.26 0.26 38 1012.5
20260503010345 44 323 0.0 2.0 0.00 0.30 0.30 74 1010.8
20260503004913 47 293 1.0 6.0 0.00 0.26 0.26 37 1012.4
20260503004829 44 309 1.0 3.0 0.00 0.30 0.30 74 1010.7
20260503003418 47 287 0.0 3.0 0.00 0.26 0.26 37 1012.4
20260503003319 46 296 0.0 1.0 0.00 0.30 0.30 72 1010.7
20260503001929 48 299 2.0 5.0 0.00 0.26 0.26 36 1012.2
20260503001843 47 291 1.0 2.0 0.00 0.30 0.30 63 1010.5
20260503000331 49 327 1.0 5.0 0.00 0.26 0.26 37 1011.9
20260503000325 49 338 0.0 4.0 0.00 0.30 0.30 60 1010.4
20260502234854 50 278 3.0 6.0 0.00 0.26 0.26 34 1011.8
20260502234850 50 306 1.0 4.0 0.00 0.30 0.30 56 1010.2
20260502233432 51 289 4.0 10.0 0.00 0.26 0.26 32 1011.6
20260502233358 51 315 2.0 5.0 0.00 0.30 0.30 52 1010.1
20260502233316 51 315 2.0 5.0 0.00 0.30 0.30 52 1010.1
20260502231841 51 315 2.0 10.0 0.00 0.30 0.30 50 1009.9
20260502231825 53 254 5.0 11.0 0.00 0.26 0.26 31 1011.4
20260502230344 54 304 4.0 13.0 0.00 0.26 0.26 30 1011.3
20260502230323 51 273 2.0 5.0 0.00 0.30 0.30 53 1009.8
20260502224937 53 226 3.0 9.0 0.00 0.26 0.26 30 1011.1
20260502224825 51 329 2.0 6.0 0.00 0.30 0.30 52 1009.7
20260502223409 52 276 3.0 9.0 0.00 0.26 0.26 32 1011.1
20260502223352 51 322 1.0 2.0 0.00 0.30 0.30 64 1009.5
20260502221852 52 273 4.0 7.0 0.00 0.26 0.26 31 1011.0
20260502221816 51 283 2.0 4.0 0.00 0.30 0.30 63 1009.5
20260502220352 52 247 4.0 10.0 0.00 0.26 0.26 35 1010.8
20260502220320 52 291 0.0 2.0 0.00 0.30 0.30 75 1009.4
20260502214901 53 287 2.0 9.0 0.00 0.26 0.26 38 1010.8
20260502214825 52 265 1.0 2.0 0.00 0.30 0.30 63 1009.2
20260502213349 53 264 4.0 7.0 0.00 0.26 0.26 36 1010.8
20260502213329 53 282 1.0 2.0 0.00 0.30 0.30 62 1009.2
20260502211941 54 209 4.0 7.0 0.00 0.26 0.26 39 1010.6
20260502211835 53 334 0.0 4.0 0.00 0.30 0.30 65 1009.1
20260502210414 54 282 4.0 12.0 0.00 0.26 0.26 38 1010.6
20260502210321 53 30 0.0 1.0 0.00 0.30 0.30 71 1008.9
20260502204855 53 262 3.0 8.0 0.00 0.26 0.26 40 1010.6
20260502204820 53 279 0.0 1.0 0.00 0.30 0.30 69 1009.1
20260502203346 53 307 3.0 8.0 0.00 0.26 0.26 42 1010.7
20260502203327 53 5 1.0 3.0 0.00 0.30 0.30 68 1009.2
20260502201910 54 240 3.0 8.0 0.00 0.26 0.26 42 1010.7
20260502201832 54 318 1.0 3.0 0.00 0.30 0.30 67 1009.1